• In Deutschland
  • Länderverzeichnis
  • Für 7 Tage
  • Wassertemperatur
  • Satellitenkarten
  • Wetterkarte
  • Widgets
  • user-avatar
    Anmelden

    Stündliche Wetter Giumri

    Heute, 21 Oktober, Sonntag

    Zeit Temperatur Niederschläge Wind Luftdruck Luftfeuchtigkeit
    00:00 +11°C° 0.4 mm 1 m/S 634 mmHg 79%
    01:00 +10°C° 0.2 mm 1 m/S 634 mmHg 80%
    02:00 +10°C° 0.2 mm 1 m/S 634 mmHg 81%
    03:00 +10°C° 0.2 mm 1 m/S 634 mmHg 82%
    04:00 +9°C° 0.1 mm 1 m/S 633 mmHg 83%
    05:00 +9°C° 0.1 mm 1 m/S 633 mmHg 84%
    06:00 +9°C° 0.1 mm 1 m/S 633 mmHg 85%
    07:00 +10°C° 0 mm 1 m/S 634 mmHg 79%
    08:00 +12°C° 0 mm 2 m/S 634 mmHg 73%
    09:00 +14°C° 0 mm 2 m/S 635 mmHg 64%
    10:00 +15°C° 0 mm 2 m/S 635 mmHg 59%
    11:00 +16°C° 0 mm 3 m/S 635 mmHg 54%
    12:00 +17°C° 0 mm 3 m/S 635 mmHg 49%
    13:00 +17°C° 0.1 mm 3 m/S 635 mmHg 49%
    14:00 +17°C° 0.1 mm 3 m/S 635 mmHg 49%
    15:00 +17°C° 0 mm 3 m/S 634 mmHg 49%
    16:00 +16°C° 0.3 mm 3 m/S 634 mmHg 55%
    17:00 +14°C° 0.3 mm 3 m/S 634 mmHg 61%
    18:00 +12°C° 0.3 mm 3 m/S 634 mmHg 67%
    19:00 +13°C° 0.6 mm 2 m/S 634 mmHg 70%
    20:00 +13°C° 0.6 mm 2 m/S 634 mmHg 73%
    21:00 +12°C° 0.6 mm 1 m/S 634 mmHg 76%
    22:00 +12°C° 0.5 mm 1 m/S 634 mmHg 77%
    23:00 +12°C° 0.5 mm 1 m/S 634 mmHg 79%

    Morgen, 22 Oktober, Montag

    Zeit Temperatur Niederschläge Wind Luftdruck Luftfeuchtigkeit
    00:00 +11°C° 0.5 mm 1 m/S 634 mmHg 80%
    01:00 +11°C° 0.2 mm 1 m/S 634 mmHg 81%
    02:00 +11°C° 0.2 mm 1 m/S 634 mmHg 82%
    03:00 +10°C° 0.2 mm 1 m/S 634 mmHg 83%
    04:00 +10°C° 0.7 mm 1 m/S 634 mmHg 83%
    05:00 +10°C° 0.7 mm 1 m/S 634 mmHg 84%
    06:00 +9°C° 0.7 mm 2 m/S 634 mmHg 84%
    07:00 +10°C° 0.3 mm 2 m/S 634 mmHg 81%
    08:00 +10°C° 0.3 mm 2 m/S 635 mmHg 79%
    09:00 +11°C° 0.3 mm 3 m/S 635 mmHg 76%
    10:00 +12°C° 0 mm 3 m/S 636 mmHg 71%
    11:00 +13°C° 0 mm 3 m/S 636 mmHg 66%
    12:00 +14°C° 0 mm 3 m/S 636 mmHg 62%
    13:00 +16°C° 0.2 mm 3 m/S 636 mmHg 60%
    14:00 +16°C° 0.2 mm 3 m/S 636 mmHg 58%
    15:00 +16°C° 0.2 mm 3 m/S 636 mmHg 56%
    16:00 +15°C° 0.2 mm 2 m/S 636 mmHg 61%
    17:00 +14°C° 0.2 mm 2 m/S 635 mmHg 66%
    18:00 +13°C° 0.2 mm 1 m/S 635 mmHg 72%
    19:00 +12°C° 0.1 mm 1 m/S 635 mmHg 74%
    20:00 +12°C° 0.1 mm 1 m/S 635 mmHg 75%
    21:00 +11°C° 0.1 mm 1 m/S 635 mmHg 77%
    22:00 +11°C° 0 mm 1 m/S 635 mmHg 78%
    23:00 +11°C° 0 mm 1 m/S 635 mmHg 78%

    übermorgen, 23 Oktober, Dienstag

    Zeit Temperatur Niederschläge Wind Luftdruck Luftfeuchtigkeit
    00:00 +10°C° 0 mm 1 m/S 635 mmHg 79%
    01:00 +10°C° 0 mm 1 m/S 635 mmHg 80%
    02:00 +10°C° 0 mm 1 m/S 635 mmHg 81%
    03:00 +9°C° 0 mm 1 m/S 635 mmHg 82%
    04:00 +9°C° 0 mm 1 m/S 634 mmHg 83%
    05:00 +9°C° 0 mm 1 m/S 634 mmHg 84%
    06:00 +9°C° 0 mm 1 m/S 634 mmHg 85%
    07:00 +10°C° 0 mm 1 m/S 634 mmHg 80%
    08:00 +11°C° 0 mm 1 m/S 635 mmHg 74%
    09:00 +13°C° 0 mm 2 m/S 636 mmHg 68%
    10:00 +14°C° 0 mm 2 m/S 636 mmHg 64%
    11:00 +14°C° 0 mm 3 m/S 635 mmHg 59%
    12:00 +16°C° 0 mm 3 m/S 635 mmHg 54%
    13:00 +16°C° 0.3 mm 3 m/S 635 mmHg 54%
    14:00 +16°C° 0.3 mm 3 m/S 635 mmHg 53%
    15:00 +16°C° 0.3 mm 3 m/S 635 mmHg 52%
    16:00 +14°C° 0.2 mm 3 m/S 634 mmHg 56%
    17:00 +14°C° 0.2 mm 2 m/S 634 mmHg 61%
    18:00 +13°C° 0.2 mm 1 m/S 634 mmHg 65%
    19:00 +12°C° 0.1 mm 1 m/S 634 mmHg 67%
    20:00 +12°C° 0.1 mm 1 m/S 633 mmHg 69%
    21:00 +11°C° 0.1 mm 1 m/S 633 mmHg 71%
    22:00 +11°C° 0.1 mm 1 m/S 633 mmHg 71%
    23:00 +11°C° 0.1 mm 1 m/S 633 mmHg 72%

    24 Oktober, Mittwoch

    Zeit Temperatur Niederschläge Wind Luftdruck Luftfeuchtigkeit
    00:00 +11°C° 0.1 mm 1 m/S 633 mmHg 72%
    01:00 +10°C° 1.3 mm 1 m/S 632 mmHg 75%
    02:00 +10°C° 1.3 mm 1 m/S 632 mmHg 78%
    03:00 +10°C° 1.3 mm 1 m/S 632 mmHg 81%
    04:00 +10°C° 1.8 mm 1 m/S 632 mmHg 84%
    05:00 +10°C° 1.8 mm 1 m/S 632 mmHg 86%
    06:00 +10°C° 1.8 mm 1 m/S 632 mmHg 88%
    07:00 +9°C° 0.2 mm 2 m/S 632 mmHg 85%
    08:00 +10°C° 0.2 mm 2 m/S 632 mmHg 81%
    09:00 +11°C° 0.2 mm 3 m/S 632 mmHg 78%
    10:00 +12°C° 0.4 mm 3 m/S 632 mmHg 74%
    11:00 +13°C° 0.4 mm 4 m/S 631 mmHg 71%
    12:00 +14°C° 0.4 mm 5 m/S 631 mmHg 67%
    13:00 +14°C° 0.8 mm 5 m/S 631 mmHg 67%
    14:00 +14°C° 0.8 mm 5 m/S 630 mmHg 66%
    15:00 +14°C° 0.8 mm 6 m/S 630 mmHg 66%
    16:00 +13°C° 1.1 mm 5 m/S 630 mmHg 71%
    17:00 +12°C° 1.1 mm 4 m/S 629 mmHg 77%
    18:00 +11°C° 1.1 mm 4 m/S 629 mmHg 82%
    19:00 +11°C° 0.7 mm 4 m/S 629 mmHg 83%
    20:00 +10°C° 0.7 mm 4 m/S 629 mmHg 85%
    21:00 +10°C° 0.7 mm 4 m/S 629 mmHg 86%
    22:00 +10°C° 0.4 mm 4 m/S 629 mmHg 87%
    23:00 +10°C° 0.4 mm 4 m/S 628 mmHg 87%

    25 Oktober, Donnerstag

    Zeit Temperatur Niederschläge Wind Luftdruck Luftfeuchtigkeit
    00:00 +10°C° 0.4 mm 4 m/S 628 mmHg 87%
    01:00 +10°C° 0.2 mm 4 m/S 628 mmHg 87%
    02:00 +9°C° 0.2 mm 5 m/S 628 mmHg 87%
    03:00 +9°C° 0.2 mm 5 m/S 627 mmHg 87%
    04:00 +8°C° 0.1 mm 5 m/S 627 mmHg 87%
    05:00 +8°C° 0.1 mm 5 m/S 627 mmHg 86%
    06:00 +8°C° 0.1 mm 5 m/S 627 mmHg 86%
    07:00 +9°C° 0.2 mm 6 m/S 627 mmHg 82%
    08:00 +10°C° 0.2 mm 7 m/S 627 mmHg 78%
    09:00 +11°C° 0.2 mm 8 m/S 627 mmHg 74%
    10:00 +11°C° 0.7 mm 8 m/S 626 mmHg 72%
    11:00 +12°C° 0.7 mm 8 m/S 626 mmHg 70%
    12:00 +12°C° 0.7 mm 9 m/S 626 mmHg 69%
    13:00 +13°C° 1 mm 9 m/S 625 mmHg 67%
    14:00 +13°C° 1 mm 8 m/S 625 mmHg 66%
    15:00 +13°C° 1 mm 8 m/S 624 mmHg 64%
    16:00 +12°C° 1 mm 7 m/S 624 mmHg 69%
    17:00 +12°C° 1 mm 5 m/S 624 mmHg 73%
    18:00 +11°C° 1 mm 4 m/S 625 mmHg 78%
    19:00 +11°C° 1.3 mm 4 m/S 625 mmHg 80%
    20:00 +11°C° 1.3 mm 4 m/S 625 mmHg 82%
    21:00 +11°C° 1.3 mm 4 m/S 625 mmHg 84%
    22:00 +10°C° 0.7 mm 4 m/S 625 mmHg 85%
    23:00 +9°C° 0.7 mm 5 m/S 625 mmHg 86%

    26 Oktober, Freitag

    Zeit Temperatur Niederschläge Wind Luftdruck Luftfeuchtigkeit
    00:00 +9°C° 0.7 mm 5 m/S 625 mmHg 86%
    01:00 +9°C° 0.7 mm 5 m/S 625 mmHg 88%
    02:00 +8°C° 0.7 mm 5 m/S 625 mmHg 89%
    03:00 +8°C° 0.7 mm 5 m/S 625 mmHg 91%
    04:00 +8°C° 1.4 mm 4 m/S 625 mmHg 91%
    05:00 +7°C° 1.4 mm 4 m/S 626 mmHg 91%
    06:00 +8°C° 1.4 mm 3 m/S 626 mmHg 91%
    07:00 +7°C° 2.5 mm 3 m/S 626 mmHg 91%
    08:00 +5°C° 2.5 mm 4 m/S 627 mmHg 91%
    09:00 +4°C° 2.5 mm 4 m/S 627 mmHg 91%
    10:00 +4°C° 2.4 mm 3 m/S 627 mmHg 91%
    11:00 +4°C° 2.4 mm 3 m/S 627 mmHg 90%
    12:00 +5°C° 2.4 mm 2 m/S 627 mmHg 90%
    13:00 +5°C° 0.6 mm 2 m/S 628 mmHg 89%
    14:00 +5°C° 0.6 mm 2 m/S 628 mmHg 88%
    15:00 +5°C° 0.6 mm 2 m/S 628 mmHg 86%
    16:00 +4°C° 0.7 mm 3 m/S 629 mmHg 88%
    17:00 +3°C° 0.7 mm 3 m/S 629 mmHg 90%
    18:00 +3°C° 0.7 mm 3 m/S 630 mmHg 91%
    19:00 +2°C° 0.3 mm 3 m/S 630 mmHg 90%
    20:00 +2°C° 0.3 mm 3 m/S 631 mmHg 90%
    21:00 +2°C° 0.3 mm 3 m/S 631 mmHg 89%
    22:00 +2°C° 0.2 mm 2 m/S 632 mmHg 88%
    23:00 +2°C° 0.2 mm 2 m/S 632 mmHg 88%
    Mehr zeigen